Zurück zum Katalog

SL-8 DEB *

AktivLEO
NORAD 18501·DEBRIS·🇷🇺 Russia

Gestartet Feb 17, 1978 von Plesetsk Cosmodrome

Loading…

Nächste Überflüge (nächste 24 Stunden)

TLE

AktuellSource: Space-Track

Epoche: Sep 14, 2026, 07:21 UTC

1 18501U 78019E   26257.30647970  .00002028  00000-0  27546-3 0  9997
2 18501  74.0510 318.4399 0007500  77.9060  43.8074 14.79534672200996

Verfolge SL-8 DEB * in Echtzeit mit AllMySat

Download on the App Store